Columbus, NE

7:52 PM CDT on July 24, 2017 (GMT -0500)
Columbus Municipal

Weather History for KOLU - January, 2014

Change the Weather History Date:

Saturday, January 11, 2014

  Actual Average Record
Temperature  
Mean Temperature 32 °F -  
Max Temperature 48 °F 28 °F 62 °F (1986)
Min Temperature 17 °F 9 °F -17 °F (1974)
Degree Days  
Heating Degree Days 32    
Moisture  
Dew Point 22 °F    
Average Humidity 60    
Maximum Humidity 86    
Minimum Humidity 32    
Precipitation  
Precipitation 0.00 in - - ()
Sea Level Pressure  
Sea Level Pressure 29.73 in    
Wind  
Wind Speed 10 mph (West)    
Max Wind Speed 23 mph    
Max Gust Speed 28 mph    
Visibility 10 miles    
Events      
Averages and records for this station are not official NWS values.
T = Trace of Precipitation, MM = Missing Value Source: NWS Daily Summary

Daily Weather History Graph

Daily Weather History Graph

Search for Another Location

Airport or City:

Trip Planner

Search our weather history database for the weather conditions in past years. The results will help you decide how hot, cold, wet, or windy it might be!

Date:

Astronomy

Jan. 11, 2014 Rise Set
Actual Time 7:54 AM CST 5:20 PM CST
Civil Twilight 7:23 AM CST 5:51 PM CST
Nautical Twilight 6:49 AM CST 6:25 PM CST
Astronomical Twilight 6:16 AM CST 6:58 PM CST
Moon 2:05 PM CST (1/11) 4:00 AM CST (1/11)
Length of Visible Light 10h 27m
Length of Day
9h 25m
Waxing Gibbous, 83% of the Moon is Illuminated
Jan 11
Waxing Gibbous
Jan 15
Full
Jan 23
Last Quarter
Jan 30
New
Feb 6
First Quarter

Hourly Weather History & Observations

Time (CST) Temp. Windchill Dew Point Humidity Pressure Visibility Wind Dir Wind Speed Gust Speed Precip Events Conditions
12:15 AM 17.6 °F 12.3 °F 12.2 °F 79% 29.64 in 10.0 mi WNW 3.5 mph - N/A   Clear
12:35 AM 21.2 °F 14.9 °F 15.8 °F 80% 29.65 in 10.0 mi WSW 4.6 mph - N/A   Clear
12:55 AM 19.4 °F 12.8 °F 15.8 °F 86% 29.65 in 10.0 mi West 4.6 mph - N/A   Clear
1:15 AM 21.2 °F 14.9 °F 17.6 °F 86% 29.65 in 10.0 mi WSW 4.6 mph - N/A   Clear
1:35 AM 21.2 °F 11.7 °F 15.8 °F 80% 29.65 in 10.0 mi WSW 8.1 mph - N/A   Clear
1:55 AM 23.0 °F 15.8 °F 19.4 °F 86% 29.65 in 10.0 mi West 5.8 mph - N/A   Clear
2:15 AM 24.8 °F 16.9 °F 19.4 °F 80% 29.65 in 10.0 mi WSW 6.9 mph - N/A   Mostly Cloudy
2:35 AM 24.8 °F 16.9 °F 19.4 °F 80% 29.65 in 10.0 mi West 6.9 mph - N/A   Overcast
2:55 AM 26.6 °F 19.1 °F 19.4 °F 74% 29.65 in 10.0 mi WSW 6.9 mph - N/A   Overcast
3:15 AM 26.6 °F 18.2 °F 21.2 °F 80% 29.65 in 10.0 mi WSW 8.1 mph - N/A   Overcast
3:35 AM 24.8 °F 15.3 °F 19.4 °F 80% 29.66 in 10.0 mi WSW 9.2 mph - N/A   Scattered Clouds
3:55 AM 24.8 °F 14.0 °F 19.4 °F 80% 29.66 in 10.0 mi WSW 11.5 mph - N/A   Clear
4:15 AM 24.8 °F 15.3 °F 19.4 °F 80% 29.66 in 10.0 mi West 9.2 mph - N/A   Clear
4:35 AM 26.6 °F 16.8 °F 21.2 °F 80% 29.67 in 10.0 mi West 10.4 mph - N/A   Partly Cloudy
4:55 AM 28.4 °F 19.7 °F 21.2 °F 74% 29.68 in 10.0 mi West 9.2 mph - N/A   Partly Cloudy
5:15 AM 28.4 °F 19.7 °F 21.2 °F 74% 29.68 in 10.0 mi WNW 9.2 mph - N/A   Clear
5:35 AM 28.4 °F 19.1 °F 21.2 °F 74% 29.68 in 10.0 mi WNW 10.4 mph - N/A   Clear
5:55 AM 28.4 °F 19.1 °F 21.2 °F 74% 29.70 in 10.0 mi West 10.4 mph - N/A   Clear
6:15 AM 28.4 °F 18.5 °F 21.2 °F 74% 29.71 in 10.0 mi WNW 11.5 mph - N/A   Clear
6:35 AM 28.4 °F 20.4 °F 21.2 °F 74% 29.71 in 10.0 mi WNW 8.1 mph - N/A   Clear
6:55 AM 28.4 °F 20.4 °F 21.2 °F 74% 29.71 in 10.0 mi WNW 8.1 mph - N/A   Clear
7:15 AM 30.2 °F 21.3 °F 21.2 °F 69% 29.72 in 10.0 mi WNW 10.4 mph - N/A   Clear
7:35 AM 32.0 °F 22.1 °F 24.8 °F 75% 29.72 in 10.0 mi WNW 13.8 mph 19.6 mph N/A   Clear
7:55 AM 30.2 °F 19.8 °F 24.8 °F 80% 29.73 in 10.0 mi WNW 13.8 mph - N/A   Clear
8:15 AM 32.0 °F 20.8 °F 24.8 °F 75% 29.74 in 10.0 mi WNW 17.3 mph 23.0 mph N/A   Clear
8:35 AM 33.8 °F 24.3 °F 24.8 °F 70% 29.75 in 10.0 mi WNW 13.8 mph - N/A   Clear
8:55 AM 32.0 °F 22.1 °F 24.8 °F 75% 29.77 in 10.0 mi WNW 13.8 mph 17.3 mph N/A   Clear
9:15 AM 33.8 °F 23.9 °F 24.8 °F 70% 29.78 in 10.0 mi WNW 15.0 mph - N/A   Clear
9:35 AM 35.6 °F 25.5 °F 26.6 °F 70% 29.78 in 10.0 mi NW 17.3 mph 23.0 mph N/A   Clear
9:55 AM 35.6 °F 24.5 °F 26.6 °F 70% 29.79 in 10.0 mi WNW 20.7 mph - N/A   Clear
10:15 AM 37.4 °F 27.5 °F 26.6 °F 65% 29.80 in 10.0 mi WNW 18.4 mph 25.3 mph N/A   Clear
10:35 AM 39.2 °F 30.2 °F 26.6 °F 61% 29.81 in 10.0 mi NW 17.3 mph 21.9 mph N/A   Clear
10:55 AM 39.2 °F 28.7 °F 28.4 °F 65% 29.82 in 10.0 mi NW 23.0 mph - N/A   Clear
11:15 AM 41.0 °F 31.4 °F 26.6 °F 57% 29.82 in 10.0 mi NW 21.9 mph 26.5 mph N/A   Clear
11:35 AM 42.8 °F 33.5 °F 26.6 °F 53% 29.82 in 10.0 mi NW 23.0 mph 27.6 mph N/A   Clear
11:55 AM 42.8 °F 34.3 °F 26.6 °F 53% 29.81 in 10.0 mi NW 19.6 mph 24.2 mph N/A   Clear
12:15 PM 44.6 °F 36.9 °F 26.6 °F 49% 29.81 in 10.0 mi WNW 18.4 mph - N/A   Clear
12:35 PM 44.6 °F 36.1 °F 26.6 °F 49% 29.80 in 10.0 mi WNW 21.9 mph 25.3 mph N/A   Clear
12:55 PM 46.4 °F 39.5 °F 24.8 °F 43% 29.79 in 10.0 mi NW 17.3 mph - N/A   Clear
1:15 PM 46.4 °F 39.0 °F 21.2 °F 37% 29.79 in 10.0 mi NW 19.6 mph - N/A   Clear
1:35 PM 48.2 °F - 21.2 °F 34% 29.78 in 10.0 mi NW 20.7 mph - N/A   Clear
1:55 PM 48.2 °F - 21.2 °F 34% 29.79 in 10.0 mi WNW 17.3 mph 24.2 mph N/A   Clear
2:15 PM 48.2 °F - 21.2 °F 34% 29.79 in 10.0 mi WNW 19.6 mph 24.2 mph N/A   Clear
2:35 PM 48.2 °F - 21.2 °F 34% 29.79 in 10.0 mi WNW 16.1 mph - N/A   Clear
2:55 PM 48.2 °F - 21.2 °F 34% 29.79 in 10.0 mi WNW 15.0 mph - N/A   Clear
3:15 PM 48.2 °F - 21.2 °F 34% 29.79 in 10.0 mi WNW 13.8 mph 18.4 mph N/A   Clear
3:35 PM 48.2 °F - 21.2 °F 34% 29.79 in 10.0 mi WNW 10.4 mph - N/A   Clear
3:55 PM 48.2 °F - 19.4 °F 32% 29.79 in 10.0 mi WNW 10.4 mph - N/A   Clear
4:15 PM 48.2 °F - 19.4 °F 32% 29.80 in 10.0 mi WNW 6.9 mph - N/A   Clear
4:35 PM 46.4 °F 42.9 °F 19.4 °F 34% 29.79 in 10.0 mi WNW 6.9 mph - N/A   Clear
4:55 PM 44.6 °F 43.1 °F 19.4 °F 37% 29.79 in 10.0 mi West 3.5 mph - N/A   Clear
5:15 PM 46.4 °F - 19.4 °F 34% 29.78 in 10.0 mi Calm Calm - N/A   Clear
5:35 PM 42.8 °F 41.1 °F 19.4 °F 39% 29.77 in 10.0 mi South 3.5 mph - N/A   Clear
5:55 PM 37.4 °F 34.9 °F 17.6 °F 45% 29.78 in 10.0 mi South 3.5 mph - N/A   Clear
6:15 PM 37.4 °F 33.8 °F 19.4 °F 48% 29.78 in 10.0 mi South 4.6 mph - N/A   Clear
6:35 PM 37.4 °F 33.8 °F 19.4 °F 48% 29.77 in 10.0 mi SSE 4.6 mph - N/A   Clear
6:55 PM 33.8 °F 28.6 °F 17.6 °F 52% 29.77 in 10.0 mi South 5.8 mph - N/A   Clear
7:15 PM 33.8 °F 27.0 °F 17.6 °F 52% 29.77 in 10.0 mi South 8.1 mph - N/A   Clear
7:35 PM 35.6 °F 29.9 °F 19.4 °F 52% 29.76 in 10.0 mi South 6.9 mph - N/A   Clear
7:55 PM 37.4 °F 32.1 °F 21.2 °F 52% 29.75 in 10.0 mi South 6.9 mph - N/A   Clear
8:15 PM 35.6 °F 29.9 °F 21.2 °F 56% 29.74 in 10.0 mi South 6.9 mph - N/A   Clear
8:35 PM 35.6 °F 29.9 °F 21.2 °F 56% 29.74 in 10.0 mi South 6.9 mph - N/A   Clear
8:55 PM 37.4 °F 31.4 °F 24.8 °F 60% 29.73 in 10.0 mi South 8.1 mph - N/A   Clear
9:15 PM 37.4 °F 31.4 °F 23.0 °F 56% 29.72 in 10.0 mi South 8.1 mph - N/A   Clear
9:35 PM 37.4 °F 30.3 °F 23.0 °F 56% 29.72 in 10.0 mi South 10.4 mph - N/A   Clear
9:55 PM 37.4 °F 30.8 °F 24.8 °F 60% 29.70 in 10.0 mi SSW 9.2 mph - N/A   Clear
10:15 PM 39.2 °F 31.2 °F 24.8 °F 56% 29.69 in 10.0 mi South 13.8 mph - N/A   Clear
10:35 PM 39.2 °F 31.6 °F 24.8 °F 56% 29.69 in 10.0 mi South 12.7 mph - N/A   Clear
10:55 PM 39.2 °F 32.0 °F 24.8 °F 56% 29.68 in 10.0 mi South 11.5 mph - N/A   Clear
11:15 PM 39.2 °F 30.8 °F 24.8 °F 56% 29.67 in 10.0 mi South 15.0 mph 18.4 mph N/A   Clear
11:35 PM 37.4 °F 29.3 °F 24.8 °F 60% 29.66 in 10.0 mi SSW 12.7 mph 19.6 mph N/A   Clear
11:55 PM 37.4 °F 28.9 °F 24.8 °F 60% 29.65 in 10.0 mi South 13.8 mph - N/A   Clear